Newark, NJ

6:49 AM EDT on August 24, 2017 (GMT -0400)
Newark International

Weather History for KEWR - August, 2012

Change the Weather History Date:

Sunday, August 12, 2012

  Actual Average Record
Temperature  
Mean Temperature 81 °F 76 °F  
Max Temperature 88 °F 85 °F 98 °F (1944)
Min Temperature 73 °F 68 °F 54 °F (1954)
Degree Days  
Heating Degree Days 0 0  
Month to date heating degree days 0 0  
Since 1 June heating degree days 14 17  
Since 1 July heating degree days 0 0  
Cooling Degree Days 16 11  
Month to date cooling degree days 188 143  
Year to date cooling degree days 1059 841  
Since 1 June cooling degree days 926 765  
Growing Degree Days 30 (Base 50)    
Moisture  
Dew Point 63 °F    
Average Humidity 64    
Maximum Humidity 87    
Minimum Humidity 40    
Precipitation  
Precipitation 0.00 in 0.12 in 3.44 in (1955)
Month to date precipitation 1.61 1.66  
Year to date precipitation 21.94 29.33  
Snow  
Snow 0.00 in 0.00 in 0.00 in (2002)
Month to date snowfall 0.0 0.0  
Since 1 July snowfall 0.0 0.0  
Snow Depth 0.00 in    
Sea Level Pressure  
Sea Level Pressure 29.91 in    
Wind  
Wind Speed 8 mph (West)    
Max Wind Speed 21 mph    
Max Gust Speed 24 mph    
Visibility 10 miles    
Events      
T = Trace of Precipitation, MM = Missing Value Source: NWS Daily Summary

Daily Weather History Graph

Daily Weather History Graph

Search for Another Location

Airport or City:

Trip Planner

Search our weather history database for the weather conditions in past years. The results will help you decide how hot, cold, wet, or windy it might be!

Date:

Astronomy

Aug. 12, 2012 Rise Set
Actual Time 6:04 AM EDT 7:58 PM EDT
Civil Twilight 5:34 AM EDT 8:27 PM EDT
Nautical Twilight 4:58 AM EDT 9:03 PM EDT
Astronomical Twilight 4:19 AM EDT 9:42 PM EDT
Moon 1:14 AM EDT (8/12) 4:21 PM EDT (8/12)
Length of Visible Light 14h 52m
Length of Day
13h 53m
Waning Crescent, 24% of the Moon is Illuminated
Aug 12
Waning Crescent
Aug 17
New
Aug 24
First Quarter
Aug 31
Full
Sep 8
Last Quarter

Hourly Weather History & Observations

Time (EDT) Temp. Heat Index Dew Point Humidity Pressure Visibility Wind Dir Wind Speed Gust Speed Precip Events Conditions
12:51 AM 75.0 °F - 68.0 °F 79% 29.90 in 10.0 mi SW 4.6 mph - N/A   Mostly Cloudy
1:01 AM 75.2 °F - 68.0 °F 78% 29.90 in 10.0 mi SW 4.6 mph - N/A   Overcast
1:51 AM 75.0 °F - 69.1 °F 82% 29.88 in 10.0 mi WSW 4.6 mph - N/A   Mostly Cloudy
2:51 AM 75.0 °F - 69.1 °F 82% 29.88 in 10.0 mi West 4.6 mph - N/A   Overcast
3:51 AM 75.0 °F - 70.0 °F 84% 29.89 in 10.0 mi West 9.2 mph - N/A   Overcast
4:51 AM 73.9 °F - 70.0 °F 87% 29.90 in 10.0 mi WNW 8.1 mph - N/A   Overcast
5:31 AM 73.4 °F - 69.8 °F 88% 29.90 in 10.0 mi NW 3.5 mph - N/A   Overcast
5:51 AM 73.9 °F - 69.1 °F 85% 29.91 in 10.0 mi NNW 4.6 mph - N/A   Overcast
6:51 AM 75.0 °F - 64.0 °F 69% 29.92 in 10.0 mi NNW 5.8 mph - N/A   Mostly Cloudy
7:51 AM 75.2 °F - 60.8 °F 61% 29.94 in 10.0 mi NW 4.6 mph - N/A   Mostly Cloudy
8:51 AM 79.0 °F - 60.1 °F 52% 29.94 in 10.0 mi NW 4.6 mph - N/A   Mostly Cloudy
9:51 AM 81.0 °F 81.7 °F 61.0 °F 50% 29.93 in 10.0 mi West 4.6 mph - N/A   Scattered Clouds
10:51 AM 82.0 °F 83.0 °F 62.1 °F 51% 29.92 in 10.0 mi WSW 8.1 mph - N/A   Scattered Clouds
11:51 AM 84.0 °F 85.4 °F 64.0 °F 51% 29.91 in 10.0 mi Variable 4.6 mph - N/A   Scattered Clouds
12:51 PM 84.0 °F 84.9 °F 63.0 °F 49% 29.91 in 10.0 mi SW 10.4 mph - N/A   Scattered Clouds
1:51 PM 86.0 °F 86.1 °F 61.0 °F 43% 29.91 in 10.0 mi SSW 13.8 mph 18.4 mph N/A   Mostly Cloudy
2:51 PM 86.0 °F 85.4 °F 59.0 °F 40% 29.90 in 10.0 mi WSW 11.5 mph 19.6 mph N/A   Mostly Cloudy
3:51 PM 87.1 °F 86.7 °F 60.1 °F 40% 29.89 in 10.0 mi West 15.0 mph 23.0 mph N/A   Mostly Cloudy
4:51 PM 86.0 °F 85.7 °F 60.1 °F 41% 29.90 in 10.0 mi SW 12.7 mph - N/A   Mostly Cloudy
5:51 PM 84.9 °F 84.8 °F 60.1 °F 43% 29.90 in 10.0 mi West 11.5 mph - N/A   Mostly Cloudy
6:51 PM 82.9 °F 82.8 °F 59.0 °F 44% 29.90 in 10.0 mi WSW 13.8 mph 21.9 mph N/A   Mostly Cloudy
7:51 PM 82.0 °F 82.1 °F 59.0 °F 45% 29.92 in 10.0 mi West 11.5 mph - N/A   Scattered Clouds
8:51 PM 80.1 °F 80.9 °F 60.1 °F 50% 29.93 in 10.0 mi West 9.2 mph - N/A   Partly Cloudy
9:51 PM 78.1 °F - 61.0 °F 56% 29.94 in 10.0 mi West 9.2 mph - N/A   Partly Cloudy
10:51 PM 75.9 °F - 61.0 °F 60% 29.95 in 10.0 mi West 5.8 mph - N/A   Partly Cloudy
11:51 PM 75.0 °F - 61.0 °F 62% 29.95 in 10.0 mi West 9.2 mph - N/A   Partly Cloudy